TimeCST,TemperatureF,Dew PointF,Humidity,Sea Level PressureIn,VisibilityMPH,Wind Direction,Wind SpeedMPH,Gust SpeedMPH,PrecipitationIn,Events,Conditions,WindDirDegrees,DateUTC
12:15 AM,26.6,19.4,74,30.39,10.0,Calm,Calm,-,N/A,,Clear,0,2013-01-10 06:15:00
12:35 AM,24.8,21.2,86,30.37,10.0,North,3.5,-,N/A,,Clear,350,2013-01-10 06:35:00
12:55 AM,24.8,19.4,80,30.38,10.0,Calm,Calm,-,N/A,,Clear,0,2013-01-10 06:55:00
1:15 AM,21.2,17.6,86,30.41,10.0,South,4.6,-,N/A,,Clear,170,2013-01-10 07:15:00
1:35 AM,24.8,17.6,74,30.42,10.0,Calm,Calm,-,N/A,,Clear,0,2013-01-10 07:35:00
1:55 AM,24.8,19.4,80,30.43,10.0,SW,6.9,-,N/A,,Clear,230,2013-01-10 07:55:00
2:15 AM,24.8,19.4,80,30.45,10.0,WSW,5.8,-,N/A,,Clear,240,2013-01-10 08:15:00
2:35 AM,24.8,19.4,80,30.46,10.0,WSW,3.5,-,N/A,,Clear,240,2013-01-10 08:35:00
2:55 AM,24.8,19.4,80,30.46,10.0,Calm,Calm,-,N/A,,Clear,0,2013-01-10 08:55:00
3:15 AM,24.8,21.2,86,30.47,10.0,SW,4.6,-,N/A,,Clear,230,2013-01-10 09:15:00
3:35 AM,24.8,19.4,80,30.46,10.0,Calm,Calm,-,N/A,,Clear,0,2013-01-10 09:35:00
3:55 AM,24.8,19.4,80,30.47,10.0,SW,5.8,-,N/A,,Clear,230,2013-01-10 09:55:00
4:15 AM,24.8,19.4,80,30.47,10.0,WSW,4.6,-,N/A,,Clear,240,2013-01-10 10:15:00
4:35 AM,24.8,19.4,80,30.47,10.0,WSW,4.6,-,N/A,,Clear,250,2013-01-10 10:35:00
4:55 AM,24.8,19.4,80,30.47,10.0,Calm,Calm,-,N/A,,Clear,0,2013-01-10 10:55:00
5:15 AM,24.8,19.4,80,30.46,10.0,Calm,Calm,-,N/A,,Clear,0,2013-01-10 11:15:00
5:35 AM,23.0,19.4,86,30.47,10.0,West,3.5,-,N/A,,Clear,260,2013-01-10 11:35:00
5:55 AM,23.0,17.6,80,30.48,10.0,Calm,Calm,-,N/A,,Clear,0,2013-01-10 11:55:00
6:35 AM,21.2,17.6,86,30.48,10.0,Calm,Calm,-,N/A,,Clear,0,2013-01-10 12:35:00
6:55 AM,19.4,17.6,93,30.48,10.0,Calm,Calm,-,N/A,,Clear,0,2013-01-10 12:55:00
7:15 AM,19.4,17.6,93,30.47,10.0,Calm,Calm,-,N/A,,Clear,0,2013-01-10 13:15:00
7:55 AM,19.4,17.6,93,30.46,9.0,Calm,Calm,-,N/A,,Clear,0,2013-01-10 13:55:00
8:35 AM,21.2,17.6,86,30.46,10.0,Calm,Calm,-,N/A,,Clear,0,2013-01-10 14:35:00
8:55 AM,24.8,21.2,86,30.45,10.0,Calm,Calm,-,N/A,,Clear,0,2013-01-10 14:55:00
9:15 AM,26.6,19.4,74,30.45,10.0,Calm,Calm,-,N/A,,Clear,0,2013-01-10 15:15:00
9:35 AM,28.4,24.8,86,30.45,10.0,Calm,Calm,-,N/A,,Clear,0,2013-01-10 15:35:00
9:55 AM,30.2,24.8,80,30.44,10.0,Calm,Calm,-,N/A,,Clear,0,2013-01-10 15:55:00
10:15 AM,30.2,24.8,80,30.44,10.0,Calm,Calm,-,N/A,,Clear,0,2013-01-10 16:15:00
10:35 AM,33.8,24.8,70,30.43,10.0,South,5.8,-,N/A,,Clear,190,2013-01-10 16:35:00
10:55 AM,35.6,24.8,65,30.42,10.0,South,4.6,-,N/A,,Clear,180,2013-01-10 16:55:00
11:15 AM,33.8,24.8,70,30.40,10.0,SE,8.1,-,N/A,,Clear,140,2013-01-10 17:15:00
11:35 AM,33.8,24.8,70,30.39,10.0,SE,6.9,-,N/A,,Clear,140,2013-01-10 17:35:00
11:55 AM,35.6,26.6,70,30.37,10.0,South,6.9,-,N/A,,Clear,170,2013-01-10 17:55:00
12:15 PM,35.6,26.6,70,30.36,10.0,SSE,9.2,-,N/A,,Clear,150,2013-01-10 18:15:00
12:35 PM,35.6,26.6,70,30.35,10.0,SSE,10.4,-,N/A,,Clear,160,2013-01-10 18:35:00
12:55 PM,35.6,28.4,75,30.33,10.0,SSE,10.4,-,N/A,,Clear,160,2013-01-10 18:55:00
1:35 PM,35.6,28.4,75,30.32,10.0,SSE,5.8,-,N/A,,Clear,150,2013-01-10 19:35:00
1:55 PM,35.6,28.4,75,30.31,10.0,SSE,5.8,-,N/A,,Clear,150,2013-01-10 19:55:00
2:15 PM,37.4,30.2,75,30.29,10.0,SSE,8.1,-,N/A,,Clear,150,2013-01-10 20:15:00
2:35 PM,35.6,30.2,81,30.29,10.0,SE,5.8,-,N/A,,Clear,140,2013-01-10 20:35:00
2:55 PM,35.6,30.2,81,30.29,10.0,ESE,5.8,-,N/A,,Scattered Clouds,120,2013-01-10 20:55:00
3:15 PM,35.6,32.0,87,30.29,10.0,ESE,4.6,-,N/A,,Overcast,120,2013-01-10 21:15:00
3:35 PM,35.6,33.8,93,30.29,10.0,South,4.6,-,N/A,,Overcast,170,2013-01-10 21:35:00
3:55 PM,37.4,33.8,87,30.29,10.0,South,5.8,-,N/A,,Mostly Cloudy,180,2013-01-10 21:55:00
4:15 PM,35.6,33.8,93,30.28,10.0,SSE,5.8,-,N/A,,Partly Cloudy,160,2013-01-10 22:15:00
4:35 PM,35.6,33.8,93,30.26,10.0,SE,6.9,-,N/A,,Clear,130,2013-01-10 22:35:00
4:55 PM,35.6,32.0,87,30.25,9.0,ESE,5.8,-,N/A,,Clear,110,2013-01-10 22:55:00
5:15 PM,33.8,32.0,93,30.24,7.0,SE,5.8,-,N/A,,Clear,130,2013-01-10 23:15:00
5:35 PM,33.8,32.0,93,30.24,8.0,SE,4.6,-,N/A,,Clear,140,2013-01-10 23:35:00
5:55 PM,33.8,33.8,100,30.22,9.0,ESE,5.8,-,N/A,,Clear,120,2013-01-10 23:55:00
6:15 PM,33.8,32.0,93,30.21,10.0,ESE,5.8,-,N/A,,Clear,110,2013-01-11 00:15:00
6:35 PM,35.6,32.0,87,30.19,10.0,SE,8.1,-,N/A,,Clear,130,2013-01-11 00:35:00
6:55 PM,35.6,32.0,87,30.18,10.0,SE,6.9,-,N/A,,Clear,130,2013-01-11 00:55:00
7:15 PM,33.8,30.2,87,30.18,10.0,SE,5.8,-,N/A,,Partly Cloudy,130,2013-01-11 01:15:00
7:35 PM,35.6,32.0,87,30.16,10.0,ESE,6.9,-,N/A,,Mostly Cloudy,110,2013-01-11 01:35:00
7:55 PM,35.6,32.0,87,30.14,10.0,ESE,6.9,-,N/A,,Overcast,110,2013-01-11 01:55:00
8:15 PM,35.6,33.8,93,30.13,10.0,ESE,6.9,-,N/A,,Mostly Cloudy,110,2013-01-11 02:15:00
9:15 PM,35.6,32.0,87,30.07,10.0,ESE,8.1,-,N/A,,Clear,120,2013-01-11 03:15:00
9:35 PM,35.6,32.0,87,30.05,10.0,ESE,8.1,-,N/A,,Partly Cloudy,110,2013-01-11 03:35:00
9:55 PM,35.6,33.8,93,30.04,7.0,SSE,10.4,-,0.03,,Clear,150,2013-01-11 03:55:00
10:15 PM,35.6,33.8,93,30.02,6.0,SSE,11.5,-,0.02,,Clear,150,2013-01-11 04:15:00
10:35 PM,35.6,33.8,93,30.00,5.0,SE,10.4,-,0.06,,Clear,140,2013-01-11 04:35:00
11:15 PM,33.8,33.8,100,29.99,6.0,SSE,10.4,-,0.01,,Partly Cloudy,160,2013-01-11 05:15:00
11:35 PM,33.8,33.8,100,29.97,5.0,SSE,8.1,-,0.03,,Mostly Cloudy,150,2013-01-11 05:35:00
11:55 PM,33.8,33.8,100,29.95,5.0,SSE,10.4,-,0.04,,Mostly Cloudy,150,2013-01-11 05:55:00